{"data":{"norad_id":45772,"intl_designator":"2020-038AU","name":"STARLINK-1470","alt_names":[],"object_type":"PAYLOAD","status":"ACTIVE","operator":null,"country":"US","launch_date":"2020-06-13","launch_site_code":"AFETR","launch_vehicle":null,"mission":null,"orbit_class":"UNKNOWN","rcs_meters":null,"size_class":null,"mass_kg":null,"dimensions":null,"purposes":["comms"],"wikipedia_slug":null,"has_3d_model":false,"image_url":null,"decayed_at":null,"tle_current":{"epoch":"2026-05-24T09:17:58.573536Z","epoch_age_seconds":124442,"freshness":"FRESH","line1":"1 45772U 20038AU  26144.38748349  .00032123  00000+0  96894-3 0  9990","line2":"2 45772  53.0424 181.2177 0003774 349.9588  10.1336 15.34026764328677","mean_motion":15.34026764,"eccentricity":0.0003774,"inclination_deg":53.0424,"raan_deg":181.2177,"arg_perigee_deg":349.9588,"mean_anomaly_deg":10.1336,"bstar":0.00096894,"rev_number":32867,"period_min":93.870591686756,"perigee_km":461.23064931626,"apogee_km":466.39495302618,"semimajor_km":6841.9498011712,"source":"CELESTRAK","updated_at":"2026-05-25T13:38:16.456453Z"}}}